Zurück zum Katalog

STARLINK-36640

AktivKommunikationSSO
NORAD 67600·PAYLOAD·🇺🇸 United States

Gestartet Jan 29, 2026 von Vandenberg Space Force Base

Loading…

Nächste Überflüge (nächste 24 Stunden)

TLE

AktuellSource: CelesTrak SupGP

Epoche: Sep 15, 2026, 02:49 UTC

1 67600C 26018M   26258.11784722  .00005382  00000+0  16705-3 0  2588
2 67600  97.2853 321.6147 0000976  80.3549 255.9777 15.33438671    14

Verfolge STARLINK-36640 in Echtzeit mit AllMySat

Download on the App Store